BOE1 TNCS-TNCS

Flight info

Callsign BOE1
Flight time 0h 3m
Altitude 7000
Route CE620 DCT CE600 DCT CE700
Aircraft B772/H-SDE2E3FGHIJ5LORVWXY/LB1D1

Departure

Time 2026-04-27 12:35
Airport Juancho E. Yrausquin Airport (TNCS)

Arrival

Time 2026-04-27 12:38
Airport Juancho E. Yrausquin Airport (TNCS)
Time Latitude Longitude Altitude Speed Heading
2026-04-27 12:35 17.63844 -63.19414 1545 ft 208 kts 97°
2026-04-27 12:35 17.63776 -63.17804 2706 ft 231 kts 90°
2026-04-27 12:35 17.63415 -63.16266 2962 ft 205 kts 155°
2026-04-27 12:36 17.62261 -63.16690 1305 ft 215 kts 214°
2026-04-27 12:36 17.61153 -63.17944 1162 ft 220 kts 227°
2026-04-27 12:36 17.60111 -63.18230 1294 ft 126 kts 127°
2026-04-27 12:36 17.60205 -63.17419 548 ft 137 kts 36°
2026-04-27 12:37 17.60995 -63.17537 445 ft 122 kts 314°
2026-04-27 12:37 17.61680 -63.18228 763 ft 151 kts 320°
2026-04-27 12:37 17.62422 -63.18857 628 ft 131 kts 327°
2026-04-27 12:37 17.63140 -63.19500 587 ft 141 kts 317°
2026-04-27 12:38 17.63798 -63.20281 492 ft 146 kts 303°
2026-04-27 12:38 17.64219 -63.21170 303 ft 130 kts 291°
2026-04-27 12:38 17.64524 -63.22020 134 ft 92 kts 292°
2026-04-27 12:38 17.64591 -63.22199 149 ft 0 kts 289°
2026-04-27 12:39 17.63736 -63.19870 407 ft 247 kts 290°
2026-04-27 12:39 17.63780 -63.21172 852 ft 145 kts 216°
2026-04-27 12:39 17.63034 -63.20962 86 ft 135 kts 107°
2026-04-27 12:40 17.63004 -63.20186 232 ft 108 kts 59°
2026-04-27 12:40 17.63579 -63.19685 715 ft 106 kts 338°
2026-04-27 12:40 17.64116 -63.20364 667 ft 138 kts 272°
2026-04-27 12:40 17.64251 -63.21296 248 ft 121 kts 290°
2026-04-27 12:41 17.64541 -63.22066 141 ft 79 kts 290°
2026-04-27 12:41 17.64590 -63.22199 149 ft 0 kts 291°
2026-04-27 12:41 17.64341 -63.21545 95 ft 443 kts 291°
2026-04-27 12:41 17.63097 -63.18287 618 ft 236 kts 291°
2026-04-27 12:42 17.63639 -63.19610 720 ft 179 kts 296°
2026-04-27 12:42 17.63801 -63.20665 646 ft 123 kts 234°
2026-04-27 12:42 17.63073 -63.21107 729 ft 125 kts 172°
2026-04-27 12:42 17.62482 -63.20638 553 ft 104 kts 99°
2026-04-27 12:43 17.62822 -63.19993 358 ft 118 kts 15°
2026-04-27 12:43 17.63602 -63.20369 412 ft 134 kts 314°
2026-04-27 12:43 17.64155 -63.21115 311 ft 125 kts 298°
2026-04-27 12:43 17.64474 -63.21888 139 ft 50 kts 295°
2026-04-27 12:44 17.64557 -63.22032 138 ft 10 kts 284°
2026-04-27 12:44 17.64525 -63.22048 139 ft 11 kts 153°
2026-04-27 12:44 17.64501 -63.21950 132 ft 19 kts 105°
2026-04-27 12:44 17.64450 -63.21923 128 ft 7 kts 221°
2026-04-27 12:45 17.64446 -63.21959 121 ft 0 kts 296°
2026-04-27 12:45 17.64275 -63.21350 111 ft 457 kts 296°
2026-04-27 12:45 17.61552 -63.15410 1947 ft 250 kts 296°
2026-04-27 12:45 17.62213 -63.16769 2075 ft 183 kts 299°
2026-04-27 12:46 17.62864 -63.17898 1099 ft 191 kts 303°
2026-04-27 12:46 17.63446 -63.19091 575 ft 163 kts 289°
2026-04-27 12:46 17.63761 -63.20063 380 ft 127 kts 288°
2026-04-27 12:46 17.64072 -63.20899 233 ft 122 kts 295°
2026-04-27 12:47 17.64397 -63.21700 172 ft 118 kts 294°
2026-04-27 12:47 17.64584 -63.22176 149 ft 6 kts 283°
2026-04-27 12:47 17.64603 -63.22201 148 ft 2 kts 23°
2026-04-27 12:47 17.64602 -63.22176 149 ft 10 kts 127°
2026-04-27 12:48 17.64523 -63.22006 133 ft 33 kts 111°
2026-04-27 12:48 17.64442 -63.21923 121 ft 15 kts 235°
2026-04-27 12:48 17.64440 -63.21963 125 ft 0 kts 284°